Flag for Pakistan Weather past 2 weeks in Sukkur, Pakistan

Now
61 °F

Haze.


Feels Like: 61 °F
Forecast: 51 / 77 °F
Wind: 5 mph from Northeast

Location: Sukkur

Current Time: Dec 20, 2014 at 4:33:13 PM

Latest Report: Dec 20, 2014 at 4:00 PM


Visibility: 1 mi

Pressure: 30.04 "Hg

Humidity: 68%

Dew point: 50 °F

Location of SukkurLocation

Historic Weather in Sukkur — Graph

°F

Sukkur temperature yesterday

Maximum temperature yesterday: 64 °F (at 1:00 PM)
Minimum temperature yesterday: 50 °F (at 6:00 AM)
Average temperature yesterday: 58 °F

Past Weeks' High & Low Weather Summary

 TemperatureHumidityPressure
High86 °F (Dec 5, 3:00 PM)94% (Dec 17, 9:00 AM)30.18 "Hg (Dec 17, 9:00 AM)
Low43 °F (Dec 12, 6:00 AM)20% (Dec 8, 4:00 PM)29.89 "Hg (Dec 8, 4:00 AM)
Average61 °F64%30.04 "Hg
* Reported Dec 5 3:00 PM — Dec 20 3:00 PM, Sukkur, Weather by CustomWeather, © 2014

Note: Actual official high and low records may vary slightly from our data, if they occured in-between our weather recording intervals... More about our weather records

Advertising

Sukkur weather history for previous 24 hours

 ConditionsComfort  
Time TempWeatherWind HumidityBarometerVisibility
3:00 PM
Dec 20
57 °FFog.5 mph72%30.07 "Hg1 mi
2:00 PM55 °FFog.No wind77%30.09 "Hg1 mi
1:00 PM54 °FFog.No wind82%30.12 "Hg1 mi
12:00 PM50 °FFog.No wind94%30.18 "Hg1 mi
11:00 AM50 °FFog.No wind94%30.18 "Hg0 mi
10:00 AM48 °FFog.5 mph94%30.18 "Hg0 mi
9:00 AM48 °FFog.No wind94%30.18 "Hg0 mi
8:00 AM48 °FFog.2 mph87%30.15 "Hg0 mi
7:00 AM46 °FFog.7 mph93%30.12 "Hg0 mi
1:00 AM50 °FFog.5 mph88%30.15 "Hg1 mi
12:00 AM52 °FFog.5 mph88%30.15 "Hg1 mi
11:00 PM
Dec 19
52 °FFog.5 mph88%30.18 "Hg1 mi
10:00 PM54 °FFog.5 mph88%30.15 "Hg1 mi
9:00 PM55 °FFog.7 mph82%30.15 "Hg1 mi
8:00 PM55 °FFog.5 mph82%30.12 "Hg1 mi
7:00 PM59 °FFog.No wind77%30.09 "Hg1 mi
6:00 PM61 °FFog.5 mph77%30.09 "Hg1 mi
5:00 PM63 °FScattered clouds.3 mph73%30.09 "Hg1 mi
4:00 PM64 °FScattered clouds.5 mph64%30.09 "Hg1 mi
Weather by CustomWeather, © 2014

See weather overviewHow to use our weather pages